Meteo pe oră la Dzierzbia

Astăzi, 1 Martie, Luni

Timp Temperatura Precipitaţii Vânt Presiune Umiditate
00:00 0°C° 0 mm 3 m/s 760 mmHg 95%
01:00 -1°C° 0 mm 3 m/s 761 mmHg 96%
02:00 -1°C° 0 mm 2 m/s 761 mmHg 96%
03:00 -1°C° 0 mm 2 m/s 761 mmHg 95%
04:00 +1°C° 0 mm 1 m/s 761 mmHg 95%
05:00 +1°C° 0 mm 1 m/s 761 mmHg 95%
06:00 -1°C° 0 mm 2 m/s 761 mmHg 95%
07:00 -1°C° 0 mm 2 m/s 762 mmHg 95%
08:00 +2°C° 0 mm 2 m/s 762 mmHg 89%
09:00 +3°C° 0 mm 2 m/s 762 mmHg 82%
10:00 +5°C° 0 mm 2 m/s 762 mmHg 76%
11:00 +6°C° 0 mm 2 m/s 762 mmHg 72%
12:00 +7°C° 0 mm 3 m/s 762 mmHg 68%
13:00 +8°C° 0 mm 3 m/s 762 mmHg 65%
14:00 +8°C° 0 mm 3 m/s 762 mmHg 66%
15:00 +8°C° 0 mm 3 m/s 762 mmHg 68%
16:00 +8°C° 0 mm 3 m/s 761 mmHg 70%
17:00 +6°C° 0 mm 4 m/s 761 mmHg 76%
18:00 +5°C° 0 mm 4 m/s 761 mmHg 81%
19:00 +3°C° 0 mm 4 m/s 761 mmHg 87%
20:00 +3°C° 0 mm 4 m/s 761 mmHg 88%
21:00 +3°C° 0 mm 4 m/s 760 mmHg 90%
22:00 +1°C° 0 mm 4 m/s 760 mmHg 91%
23:00 +1°C° 0 mm 4 m/s 760 mmHg 91%

Mâine, 2 Martie, Marţi

Timp Temperatura Precipitaţii Vânt Presiune Umiditate
00:00 +1°C° 0 mm 4 m/s 760 mmHg 91%
01:00 +1°C° 0 mm 4 m/s 760 mmHg 90%
02:00 0°C° 0 mm 4 m/s 759 mmHg 90%
03:00 0°C° 0 mm 4 m/s 759 mmHg 90%
04:00 0°C° 0 mm 5 m/s 758 mmHg 89%
05:00 -1°C° 0 mm 4 m/s 759 mmHg 89%
06:00 -1°C° 0 mm 4 m/s 759 mmHg 89%
07:00 -1°C° 0 mm 4 m/s 759 mmHg 89%
08:00 +1°C° 0 mm 5 m/s 759 mmHg 84%
09:00 +2°C° 0 mm 5 m/s 758 mmHg 78%
10:00 +5°C° 0 mm 5 m/s 758 mmHg 73%
11:00 +5°C° 0 mm 6 m/s 759 mmHg 71%
12:00 +7°C° 0 mm 6 m/s 759 mmHg 68%
13:00 +8°C° 0 mm 6 m/s 759 mmHg 65%
14:00 +7°C° 0 mm 6 m/s 759 mmHg 67%
15:00 +7°C° 0 mm 5 m/s 759 mmHg 69%
16:00 +7°C° 0 mm 5 m/s 758 mmHg 71%
17:00 +5°C° 0 mm 5 m/s 759 mmHg 77%
18:00 +4°C° 0 mm 4 m/s 759 mmHg 83%
19:00 +3°C° 0 mm 4 m/s 760 mmHg 89%
20:00 +2°C° 0 mm 3 m/s 760 mmHg 90%
21:00 +1°C° 0 mm 3 m/s 761 mmHg 91%
22:00 +1°C° 0 mm 3 m/s 761 mmHg 91%
23:00 0°C° 0 mm 3 m/s 761 mmHg 91%

Poimâine, 3 Martie, Miercuri

Timp Temperatura Precipitaţii Vânt Presiune Umiditate
00:00 -1°C° 0 mm 2 m/s 761 mmHg 90%
01:00 -1°C° 0 mm 2 m/s 761 mmHg 90%
02:00 -1°C° 0 mm 2 m/s 761 mmHg 88%
03:00 -1°C° 0 mm 2 m/s 761 mmHg 85%
04:00 +1°C° 0 mm 1 m/s 761 mmHg 83%
05:00 +1°C° 0 mm 1 m/s 761 mmHg 80%
06:00 +1°C° 0 mm 1 m/s 761 mmHg 77%
07:00 0°C° 0 mm 0 m/s 761 mmHg 74%
08:00 +2°C° 0 mm 0 m/s 761 mmHg 67%
09:00 +4°C° 0 mm 1 m/s 761 mmHg 60%
10:00 +5°C° 0 mm 1 m/s 760 mmHg 53%
11:00 +6°C° 0 mm 1 m/s 760 mmHg 50%
12:00 +6°C° 0 mm 2 m/s 759 mmHg 47%
13:00 +7°C° 0 mm 3 m/s 759 mmHg 43%
14:00 +6°C° 0 mm 2 m/s 758 mmHg 48%
15:00 +6°C° 0 mm 2 m/s 757 mmHg 52%
16:00 +6°C° 0 mm 2 m/s 756 mmHg 57%
17:00 +5°C° 0 mm 2 m/s 756 mmHg 62%
18:00 +3°C° 0 mm 3 m/s 755 mmHg 67%
19:00 +2°C° 0 mm 3 m/s 755 mmHg 72%
20:00 +1°C° 0 mm 3 m/s 754 mmHg 78%
21:00 +1°C° 0 mm 3 m/s 753 mmHg 84%
22:00 +1°C° 0 mm 3 m/s 753 mmHg 89%
23:00 +1°C° 0 mm 3 m/s 752 mmHg 89%

4 Martie, Joi

Timp Temperatura Precipitaţii Vânt Presiune Umiditate
00:00 0°C° 0 mm 3 m/s 751 mmHg 89%
01:00 0°C° 0 mm 3 m/s 750 mmHg 89%
02:00 0°C° 0 mm 3 m/s 750 mmHg 90%
03:00 0°C° 0 mm 3 m/s 749 mmHg 90%
04:00 -1°C° 0 mm 4 m/s 748 mmHg 91%
05:00 -1°C° 0 mm 4 m/s 747 mmHg 92%
06:00 -1°C° 0 mm 4 m/s 747 mmHg 93%
07:00 -1°C° 0 mm 4 m/s 746 mmHg 94%
08:00 0°C° 0 mm 4 m/s 746 mmHg 91%
09:00 +1°C° 0 mm 5 m/s 746 mmHg 88%
10:00 +2°C° 0 mm 5 m/s 746 mmHg 85%
11:00 +2°C° 0 mm 5 m/s 746 mmHg 84%
12:00 +2°C° 0 mm 5 m/s 746 mmHg 83%
13:00 +3°C° 0 mm 4 m/s 746 mmHg 81%
14:00 +3°C° 0 mm 4 m/s 746 mmHg 80%
15:00 +3°C° 0 mm 3 m/s 745 mmHg 79%
16:00 +3°C° 0 mm 3 m/s 745 mmHg 79%
17:00 +2°C° 0 mm 3 m/s 745 mmHg 82%
18:00 +3°C° 0 mm 2 m/s 746 mmHg 85%
19:00 +3°C° 0 mm 2 m/s 746 mmHg 88%
20:00 +1°C° 0.1 mm 3 m/s 746 mmHg 90%
21:00 0°C° 0.1 mm 3 m/s 746 mmHg 93%
22:00 0°C° 0.1 mm 3 m/s 746 mmHg 95%
23:00 -2°C° 0.1 mm 4 m/s 746 mmHg 90%

5 Martie, Vineri

Timp Temperatura Precipitaţii Vânt Presiune Umiditate
00:00 -2°C° 0.1 mm 4 m/s 746 mmHg 86%
01:00 -3°C° 0.1 mm 4 m/s 746 mmHg 81%
02:00 -3°C° 0 mm 4 m/s 746 mmHg 76%
03:00 -3°C° 0 mm 4 m/s 746 mmHg 72%
04:00 -3°C° 0 mm 4 m/s 746 mmHg 68%
05:00 -3°C° 0 mm 4 m/s 746 mmHg 64%
06:00 -3°C° 0 mm 4 m/s 746 mmHg 61%
07:00 -3°C° 0 mm 4 m/s 747 mmHg 57%
08:00 -3°C° 0 mm 4 m/s 747 mmHg 55%
09:00 -2°C° 0 mm 5 m/s 747 mmHg 53%
10:00 -2°C° 0 mm 5 m/s 748 mmHg 51%
11:00 -1°C° 0 mm 5 m/s 748 mmHg 50%
12:00 0°C° 0 mm 4 m/s 748 mmHg 48%
13:00 0°C° 0 mm 4 m/s 749 mmHg 47%
14:00 0°C° 0.1 mm 4 m/s 749 mmHg 51%
15:00 -1°C° 0.1 mm 4 m/s 749 mmHg 55%
16:00 -1°C° 0.1 mm 4 m/s 749 mmHg 59%
17:00 -2°C° 0 mm 4 m/s 750 mmHg 61%
18:00 -2°C° 0 mm 3 m/s 750 mmHg 62%
19:00 -4°C° 0 mm 3 m/s 751 mmHg 64%
20:00 -5°C° 0 mm 3 m/s 752 mmHg 62%
21:00 -4°C° 0 mm 2 m/s 752 mmHg 60%
22:00 -4°C° 0 mm 2 m/s 753 mmHg 58%
23:00 -5°C° 0 mm 3 m/s 753 mmHg 61%

6 Martie, Sâmbătă

Timp Temperatura Precipitaţii Vânt Presiune Umiditate
00:00 -5°C° 0 mm 3 m/s 753 mmHg 64%
01:00 -5°C° 0 mm 3 m/s 754 mmHg 67%
02:00 -5°C° 0 mm 3 m/s 754 mmHg 67%
03:00 -5°C° 0 mm 3 m/s 754 mmHg 67%
04:00 -5°C° 0 mm 3 m/s 755 mmHg 67%
05:00 -5°C° 0 mm 3 m/s 755 mmHg 66%
06:00 -5°C° 0 mm 3 m/s 756 mmHg 65%
07:00 -5°C° 0 mm 3 m/s 756 mmHg 64%
08:00 -4°C° 0 mm 4 m/s 757 mmHg 59%
09:00 -3°C° 0 mm 4 m/s 757 mmHg 53%
10:00 -4°C° 0 mm 5 m/s 758 mmHg 48%
11:00 -2°C° 0 mm 5 m/s 758 mmHg 43%
12:00 -2°C° 0 mm 5 m/s 758 mmHg 39%
13:00 -1°C° 0 mm 5 m/s 758 mmHg 35%
14:00 -2°C° 0 mm 5 m/s 758 mmHg 36%
15:00 -2°C° 0 mm 4 m/s 759 mmHg 38%
16:00 -2°C° 0 mm 4 m/s 759 mmHg 39%
17:00 -2°C° 0 mm 3 m/s 759 mmHg 45%
18:00 -4°C° 0 mm 3 m/s 759 mmHg 51%
19:00 -3°C° 0 mm 2 m/s 760 mmHg 56%
20:00 -4°C° 0 mm 2 m/s 760 mmHg 59%
21:00 -4°C° 0 mm 2 m/s 760 mmHg 62%
22:00 -4°C° 0 mm 2 m/s 760 mmHg 64%
23:00 -5°C° 0 mm 3 m/s 760 mmHg 64%
Arată mai mult

Formular de consimțământ

Meteoprog și furnizorii noștri de servicii pot stoca și accesa date personale, precum cookies, identificatori de dispozitiv sau alte tehnologii similare pe dispozitivul dumneavoastră și procesa astfel de date pentru a personaliza conținutul și reclamele, dar și pentru a oferi caracteristici de social media și pentru a analiza traficul.

  • Stocarea și/sau accesarea informațiilor pe dispozitivul dumneavoastră

    Cookies, identificatori de dispozitiv sau alte informații pot fi stocate sau accesate pe dispozitiv în scopurile indicate mai sus.

  • Reclame și conținut personalizat, evaluarea reclamelor și a conținutului, informații despre audiențe și dezvoltarea produselor

    Reclamele și conținutul pot fi personalizate pe baza unui profil. Pot fi adăugate date suplimentare pentru a personaliza mai bine reclamele și conținutul. Performanța reclamelor și conținutului poate fi măsurată. Pot fi obținute informații despre utilizatorii care au văzut reclamele și conținutul. Aceste date pot fi utilizate pentru a dezvolta sau îmbunătăți experiența utilizatorilor, sistemele și software-ul.

Dând clic pe ‘Sunt de acord’, permiteți utilizarea cookie-urilor menționate, a identificatorilor de dispozitiv, balizelor web sau altor tehnologii similare. Setările pot fi modificate din browser-ul dispozitivului dumneavoastră.

În anumite scopuri, interesele legitime pot prima asupra consimțământului. Puteți citi mai multe informații în acest sens în Politica privind Confidențialitatea Datelor și Cookie.